Fort Indiantown Gap, PA

2:41 PM EDT on July 24, 2017 (GMT -0400)
Muir Army Air Field

Weather History for KMUI - October, 2012

Change the Weather History Date:

Friday, October 5, 2012

  Actual Average Record
Temperature  
Mean Temperature 63 °F -  
Max Temperature 78 °F 66 °F 83 °F (2013)
Min Temperature 48 °F 47 °F 33 °F (2014)
Degree Days  
Heating Degree Days 2    
Growing Degree Days 13 (Base 50)    
Moisture  
Dew Point 54 °F    
Average Humidity 95    
Maximum Humidity 100    
Minimum Humidity 50    
Precipitation  
Precipitation 0.00 in - - ()
Sea Level Pressure  
Sea Level Pressure 30.06 in    
Wind  
Wind Speed 0 mph (WSW)    
Max Wind Speed 12 mph    
Max Gust Speed 17 mph    
Visibility 2 miles    
Events Fog    
Averages and records for this station are not official NWS values.
T = Trace of Precipitation, MM = Missing Value Source: NWS Daily Summary

Daily Weather History Graph

Daily Weather History Graph

Search for Another Location

Airport or City:

Trip Planner

Search our weather history database for the weather conditions in past years. The results will help you decide how hot, cold, wet, or windy it might be!

Date:

Astronomy

Oct. 05, 2012 Rise Set
Actual Time 7:07 AM EDT 6:41 PM EDT
Civil Twilight 6:39 AM EDT 7:08 PM EDT
Nautical Twilight 6:08 AM EDT 7:39 PM EDT
Astronomical Twilight 5:36 AM EDT 8:11 PM EDT
Moon 10:02 PM EDT (10/5) 12:13 PM EDT (10/5)
Length of Visible Light 12h 28m
Length of Day
11h 33m
Waning Gibbous, 74% of the Moon is Illuminated
Oct 5
Waning Gibbous
Oct 8
Last Quarter
Oct 15
New
Oct 21
First Quarter
Oct 29
Full

Hourly Weather History & Observations

Time (EDT) Temp. Dew Point Humidity Pressure Visibility Wind Dir Wind Speed Gust Speed Precip Events Conditions
12:09 AM 53.6 °F 53.6 °F 100% 30.12 in 2.5 mi Calm Calm - N/A   Clear
12:13 AM 53.6 °F 53.6 °F 100% 30.12 in 3.0 mi Calm Calm - N/A   Clear
12:55 AM 55.2 °F 55.0 °F 99% 30.12 in 9.0 mi WNW 3.5 mph - N/A   Clear
1:43 AM 53.6 °F 51.8 °F 94% 30.12 in 2.5 mi Calm Calm - N/A   Clear
1:45 AM 53.6 °F 51.8 °F 94% 30.12 in 1.8 mi Calm Calm - N/A   Clear
1:46 AM 53.6 °F 51.8 °F 94% 30.12 in 1.5 mi Calm Calm - N/A   Clear
1:48 AM 53.6 °F 51.8 °F 94% 30.12 in 1.2 mi Calm Calm - N/A   Clear
1:54 AM 53.6 °F 53.6 °F 100% 30.12 in 1.5 mi Calm Calm - N/A   Clear
1:55 AM 53.6 °F 53.2 °F 99% 30.12 in 1.8 mi Calm Calm - N/A   Clear
1:56 AM 53.6 °F 53.6 °F 100% 30.12 in 2.0 mi Calm Calm - N/A   Clear
1:59 AM 53.6 °F 53.6 °F 100% 30.12 in 3.0 mi Calm Calm - N/A   Clear
2:25 AM 51.8 °F 51.8 °F 100% 30.12 in 2.5 mi Calm Calm - N/A   Clear
2:30 AM 51.8 °F 51.8 °F 100% 30.12 in 1.8 mi Calm Calm - N/A   Clear
2:31 AM 51.8 °F 51.8 °F 100% 30.12 in 1.5 mi Calm Calm - N/A   Clear
2:32 AM 51.8 °F 51.8 °F 100% 30.12 in 1.2 mi Calm Calm - N/A   Clear
2:33 AM 51.8 °F 51.8 °F 100% 30.12 in 1.0 mi Calm Calm - N/A   Clear
2:35 AM 51.8 °F 51.8 °F 100% 30.12 in 0.8 mi Calm Calm - N/A   Clear
2:39 AM 51.8 °F 51.8 °F 100% 30.12 in 0.5 mi Calm Calm - N/A Fog Fog
2:44 AM 51.8 °F 51.8 °F 100% 30.12 in 0.8 mi Calm Calm - N/A   Clear
2:49 AM 51.8 °F 51.8 °F 100% 30.12 in 1.0 mi NE 3.5 mph - N/A   Clear
2:50 AM 51.8 °F 51.8 °F 100% 30.12 in 1.2 mi Calm Calm - N/A   Clear
2:51 AM 51.8 °F 51.8 °F 100% 30.12 in 1.5 mi Calm Calm - N/A   Clear
2:55 AM 52.2 °F 52.0 °F 99% 30.12 in 1.5 mi Calm Calm - N/A   Clear
2:58 AM 51.8 °F 51.8 °F 100% 30.12 in 1.8 mi Calm Calm - N/A   Clear
3:00 AM 51.8 °F 51.8 °F 100% 30.12 in 2.0 mi Calm Calm - N/A   Clear
3:03 AM 51.8 °F 51.8 °F 100% 30.11 in 3.0 mi Calm Calm - N/A   Clear
3:11 AM 51.8 °F 51.8 °F 100% 30.11 in 2.5 mi Calm Calm - N/A   Clear
3:17 AM 53.6 °F 51.8 °F 94% 30.11 in 3.0 mi Calm Calm - N/A   Clear
3:53 AM 51.8 °F 51.8 °F 100% 30.11 in 2.0 mi Calm Calm - N/A   Clear
3:55 AM 51.6 °F 51.3 °F 99% 30.11 in 1.8 mi Calm Calm - N/A   Clear
3:56 AM 51.8 °F 51.8 °F 100% 30.11 in 1.5 mi Calm Calm - N/A   Clear
3:58 AM 51.8 °F 51.8 °F 100% 30.11 in 1.2 mi Calm Calm - N/A   Clear
4:02 AM 50.0 °F 50.0 °F 100% 30.11 in 1.5 mi Calm Calm - N/A   Clear
4:08 AM 50.0 °F 50.0 °F 100% 30.11 in 1.2 mi Calm Calm - N/A   Clear
4:11 AM 50.0 °F 50.0 °F 100% 30.11 in 1.0 mi Calm Calm - N/A   Clear
4:14 AM 50.0 °F 50.0 °F 100% 30.11 in 0.8 mi Calm Calm - N/A   Clear
4:17 AM 50.0 °F 50.0 °F 100% 30.11 in 0.5 mi Calm Calm - N/A Fog Fog
4:23 AM 50.0 °F 50.0 °F 100% 30.11 in 0.2 mi Calm Calm - N/A Fog Fog
4:27 AM 50.0 °F 50.0 °F 100% 30.11 in 0.5 mi Calm Calm - N/A Fog Fog
4:38 AM 51.8 °F 50.0 °F 94% 30.11 in 0.8 mi Calm Calm - N/A   Clear
4:41 AM 51.8 °F 51.8 °F 100% 30.11 in 1.0 mi Calm Calm - N/A   Clear
4:42 AM 51.8 °F 51.8 °F 100% 30.11 in 1.2 mi Calm Calm - N/A   Clear
4:45 AM 51.8 °F 51.8 °F 100% 30.11 in 1.0 mi Calm Calm - N/A   Clear
4:46 AM 51.8 °F 51.8 °F 100% 30.11 in 0.8 mi Calm Calm - N/A   Clear
4:48 AM 51.8 °F 50.0 °F 94% 30.11 in 0.5 mi Calm Calm - N/A Fog Fog
4:53 AM 50.0 °F 50.0 °F 100% 30.11 in 0.2 mi Calm Calm - N/A Fog Fog
4:54 AM 50.0 °F 50.0 °F 100% 30.12 in 0.5 mi Calm Calm - N/A Fog Fog
4:55 AM 50.7 °F 50.4 °F 99% 30.12 in 0.5 mi Calm Calm - N/A Fog Fog
5:04 AM 50.0 °F 50.0 °F 100% 30.12 in 0.2 mi Calm Calm - N/A Fog Fog
5:11 AM 50.0 °F 50.0 °F 100% 30.12 in 0.5 mi Calm Calm - N/A Fog Fog
5:55 AM 49.3 °F 48.9 °F 99% 30.12 in 0.5 mi Calm Calm - N/A Fog Fog
6:12 AM 50.0 °F 50.0 °F 100% 30.12 in 0.2 mi Calm Calm - N/A Fog Fog
6:43 AM 50.0 °F 48.2 °F 94% 30.12 in 0.5 mi Calm Calm - N/A Fog Fog
6:46 AM 50.0 °F 50.0 °F 100% 30.12 in 0.8 mi Calm Calm - N/A   Clear
6:48 AM 50.0 °F 50.0 °F 100% 30.12 in 1.0 mi Calm Calm - N/A   Clear
6:50 AM 50.0 °F 50.0 °F 100% 30.12 in 1.2 mi Calm Calm - N/A   Clear
6:53 AM 50.0 °F 48.2 °F 94% 30.12 in 1.0 mi Calm Calm - N/A   Clear
6:54 AM 48.2 °F 48.2 °F 100% 30.12 in 0.8 mi Calm Calm - N/A   Clear
6:55 AM 48.7 °F 48.6 °F 99% 30.12 in 0.5 mi Calm Calm - N/A Fog Fog
6:56 AM 48.2 °F 48.2 °F 100% 30.12 in 0.2 mi Calm Calm - N/A Fog Fog
7:55 AM 50.2 °F 49.8 °F 99% 30.12 in 0.5 mi Calm Calm - N/A Fog Fog
8:06 AM 50.0 °F 50.0 °F 100% 30.12 in 0.8 mi Calm Calm - N/A   Clear
8:13 AM 51.8 °F 51.8 °F 100% 30.12 in 0.5 mi Calm Calm - N/A Fog Fog
8:15 AM 51.8 °F 51.8 °F 100% 30.12 in 0.8 mi Calm Calm - N/A   Clear
8:19 AM 51.8 °F 51.8 °F 100% 30.12 in 1.0 mi Calm Calm - N/A   Clear
8:20 AM 51.8 °F 51.8 °F 100% 30.12 in 1.2 mi Calm Calm - N/A   Clear
8:22 AM 51.8 °F 51.8 °F 100% 30.12 in 1.8 mi Calm Calm - N/A   Clear
8:23 AM 51.8 °F 51.8 °F 100% 30.12 in 2.5 mi Calm Calm - N/A   Clear
8:24 AM 51.8 °F 51.8 °F 100% 30.12 in 3.0 mi Calm Calm - N/A   Clear
8:55 AM 55.8 °F 55.6 °F 99% 30.13 in 8.0 mi Calm Calm - N/A   Clear
9:55 AM 60.6 °F 60.3 °F 99% 30.12 in 10.0 mi SW 3.5 mph - N/A   Clear
10:55 AM 68.2 °F 59.2 °F 73% 30.10 in 10.0 mi South 4.6 mph - N/A   Clear
11:55 AM 74.5 °F 57.9 °F 56% 30.08 in 10.0 mi Variable 6.9 mph - N/A   Clear
12:55 PM 76.1 °F 58.5 °F 54% 30.06 in 10.0 mi WSW 11.5 mph 17.3 mph N/A   Clear
1:55 PM 77.7 °F 59.0 °F 52% 30.03 in 6.0 mi WSW 8.1 mph - N/A   Haze
2:55 PM 78.4 °F 58.3 °F 50% 30.01 in 10.0 mi SSW 8.1 mph - N/A   Partly Cloudy
3:55 PM 77.2 °F 57.6 °F 51% 29.99 in 6.0 mi Variable 4.6 mph - N/A   Haze
4:55 PM 77.2 °F 57.4 °F 50% 29.99 in 4.0 mi SW 11.5 mph - N/A   Haze
5:55 PM 75.2 °F 59.9 °F 59% 29.99 in 3.0 mi West 3.5 mph - N/A   Haze
6:39 PM 68.0 °F 62.6 °F 83% 29.99 in 2.5 mi Calm Calm - N/A   Haze
6:42 PM 68.0 °F 60.8 °F 78% 29.98 in 1.8 mi Calm Calm - N/A   Haze
6:47 PM 66.2 °F 62.6 °F 88% 29.99 in 2.0 mi Calm Calm - N/A   Haze
6:55 PM 66.2 °F 61.2 °F 84% 29.98 in 2.0 mi Calm Calm - N/A   Haze
7:12 PM 64.4 °F 60.8 °F 88% 29.99 in 3.0 mi Calm Calm - N/A   Partly Cloudy
7:30 PM 64.4 °F 60.8 °F 88% 29.99 in 2.5 mi Calm Calm - N/A   Partly Cloudy
7:35 PM 64.4 °F 60.8 °F 88% 29.98 in 3.0 mi Calm Calm - N/A   Partly Cloudy
7:55 PM 62.8 °F 59.9 °F 90% 29.98 in 4.0 mi Calm Calm - N/A   Clear
8:34 PM 60.8 °F 59.0 °F 94% 29.98 in 2.5 mi Calm Calm - N/A   Clear
8:40 PM 60.8 °F 59.0 °F 94% 29.98 in 3.0 mi Calm Calm - N/A   Clear
8:55 PM 61.0 °F 59.0 °F 93% 29.98 in 5.0 mi Calm Calm - N/A   Clear
9:35 PM 59.0 °F 57.2 °F 94% 29.97 in 2.5 mi Calm Calm - N/A   Clear
9:47 PM 59.0 °F 59.0 °F 100% 29.97 in 3.0 mi Calm Calm - N/A   Clear
9:55 PM 58.8 °F 58.6 °F 99% 29.97 in 3.0 mi Calm Calm - N/A   Clear
10:30 PM 59.0 °F 57.2 °F 94% 29.96 in 2.5 mi Calm Calm - N/A   Clear
10:38 PM 57.2 °F 57.2 °F 100% 29.96 in 3.0 mi Calm Calm - N/A   Clear
10:48 PM 57.2 °F 57.2 °F 100% 29.96 in 2.5 mi Calm Calm - N/A   Clear
10:55 PM 58.3 °F 57.9 °F 99% 29.96 in 2.5 mi Calm Calm - N/A   Clear
11:02 PM 57.2 °F 57.2 °F 100% 29.95 in 1.8 mi Calm Calm - N/A   Clear
11:10 PM 57.2 °F 57.2 °F 100% 29.95 in 2.0 mi Calm Calm - N/A   Clear
11:22 PM 57.2 °F 57.2 °F 100% 29.94 in 1.8 mi Calm Calm - N/A   Clear
11:24 PM 57.2 °F 57.2 °F 100% 29.94 in 1.5 mi Calm Calm - N/A   Clear
11:26 PM 57.2 °F 57.2 °F 100% 29.94 in 1.2 mi Calm Calm - N/A   Clear
11:30 PM 57.2 °F 57.2 °F 100% 29.94 in 1.5 mi Calm Calm - N/A   Clear
11:32 PM 57.2 °F 57.2 °F 100% 29.94 in 1.8 mi Calm Calm - N/A   Clear
11:34 PM 57.2 °F 57.2 °F 100% 29.94 in 2.0 mi Calm Calm - N/A   Clear
11:39 PM 57.2 °F 57.2 °F 100% 29.94 in 1.5 mi Calm Calm - N/A   Clear
11:40 PM 57.2 °F 57.2 °F 100% 29.94 in 1.2 mi Calm Calm - N/A   Clear
11:42 PM 57.2 °F 57.2 °F 100% 29.94 in 1.0 mi Calm Calm - N/A   Clear
11:49 PM 57.2 °F 57.2 °F 100% 29.94 in 1.2 mi Calm Calm - N/A   Clear
11:50 PM 57.2 °F 57.2 °F 100% 29.94 in 1.5 mi Calm Calm - N/A   Clear
11:52 PM 57.2 °F 57.2 °F 100% 29.94 in 1.8 mi Calm Calm - N/A   Clear
11:54 PM 57.2 °F 57.2 °F 100% 29.94 in 2.0 mi Calm Calm - N/A   Clear
11:55 PM 57.0 °F 56.7 °F 99% 29.94 in 2.0 mi Calm Calm - N/A   Clear